Tracking 19192 objects as of 19-Jun-2018
HD Live streaming from Space Station
objects crossing your sky now

FENGYUN 1C DEB

Track FENGYUN 1C DEB now!
10-day predictions


NORAD ID: 30609
Int'l Code: 1999-025AMQ
Perigee: 809.4 km
Apogee: 1,028.4 km
Inclination: 98.5 °
Period: 103.2 minutes
Semi major axis: 7289 km
RCS: 0.0181 m2 (small)
Launch date: May 10, 1999
Source: People's Republic of China (PRC)
Launch site: Taiyaun Space Center, China (TSC)

Note: This is SATELLITE DEBRIS
aabbcc
Your satellite tracking list
Your tracking list is empty




NASA's NSSDC Master Catalog

Two Line Element Set (TLE):
1 30609U 99025AMQ 18170.15344890  .00000455  00000-0  33487-3 0  9996
2 30609  98.5437 233.9829 0150249 144.8665 216.2518 13.94832607575664
Source of the keplerian elements: AFSPC